Location: Elstree
(51.6403°N, 0.2969°W)
Time: 11:00:04
(UTC+00:00)

ISS - Visible Passes

Search period start: 28 November 2022 00:00
Search period end: 08 December 2022 00:00
Orbit: 411 x 420 km, 51.6° (Epoch: 28 November)

Date Brightness Start Highest point End Pass type
(mag) Time Alt. Az. Time Alt. Az. Time Alt. Az.
28 Nov -3.9 17:37:57 10° W 17:41:17 88° N 17:42:30 37° E visible
28 Nov -0.6 19:14:42 10° W 19:15:23 15° W 19:15:23 15° W visible
29 Nov -3.8 16:49:15 10° W 16:52:36 89° NNE 16:55:47 11° E visible
29 Nov -3.0 18:26:00 10° W 18:28:40 51° WSW 18:28:40 51° WSW visible
30 Nov -3.8 17:37:17 10° W 17:40:37 81° S 17:41:58 33° ESE visible
30 Nov -0.6 19:14:08 10° W 19:14:52 15° W 19:14:52 15° W visible
01 Dec -3.8 16:48:32 10° W 16:51:52 89° WSW 16:55:13 10° E visible
01 Dec -2.7 18:25:18 10° W 18:28:13 41° SW 18:28:13 41° SW visible
02 Dec -3.2 17:36:29 10° W 17:39:46 56° SSW 17:41:39 22° SE visible
02 Dec -0.5 19:13:51 10° WSW 19:14:33 13° WSW 19:14:33 13° WSW visible
03 Dec -3.5 16:47:41 10° W 16:51:01 71° SSW 16:54:20 10° ESE visible
03 Dec -1.7 18:24:41 10° W 18:27:22 23° SW 18:28:07 21° SSW visible
04 Dec -2.1 17:35:41 10° W 17:38:42 32° SSW 17:41:42 10° SE visible
05 Dec -2.6 16:46:44 10° W 16:49:57 44° SSW 16:53:08 10° SE visible
05 Dec -0.7 18:24:47 10° WSW 18:26:01 12° SW 18:27:15 10° SSW visible
06 Dec -0.9 17:35:05 10° W 17:37:22 17° SW 17:39:38 10° S visible
07 Dec -1.3 16:45:52 10° W 16:48:39 25° SSW 16:51:25 10° SSE visible
